Location: Balcones
(3.7244°N, 75.6017°W)
Time: 21:54:51
(UTC+00:00)

Daily predictions for brighter satellites

Satellite Brightness Start Highest point End
(mag) Time Altitude Azimuth Time Altitude Azimuth Time Altitude Azimuth
Meteor 1-5 Rocket 4.2 23:11:00 10° N 23:16:34 80° E 23:22:21 10° S
BlueWalker 3 1.8 23:13:04 10° NNW 23:16:38 60° NE 23:20:11 10° SE
Cosmos 1437 Rocket 3.7 23:16:17 10° SSE 23:19:10 23° E 23:22:00 10° NE
Cosmos 1607 4.0 23:18:41 10° NNW 23:25:00 86° ENE 23:31:23 10° SSE
Cosmos 2219 Rocket 3.2 23:20:58 10° SSE 23:25:43 28° ESE 23:30:26 10° NE
USA 81 4.0 23:20:43 10° N 23:25:57 74° E 23:31:12 10° S
Ariane H10 4.1 23:10:17 10° W 23:26:23 86° S 23:29:51 10° E
Cosmos 2333 Rocket 2.4 23:20:45 10° SSW 23:26:27 82° WNW 23:32:11 10° NNE
Cosmos 2227 Rocket 2.2 23:25:25 10° N 23:31:00 68° ENE 23:36:37 10° SSE
Cosmos 1842 4.1 23:30:29 10° SE 23:33:04 21° E 23:34:56 14° NE
MOS 1 Rocket 3.9 23:29:08 10° S 23:33:39 63° W 23:38:25 10° NNW
IRS-P3 4.2 23:29:33 10° SSE 23:34:53 89° WSW 23:40:11 10° NNW
Cosmos 2322 Rocket 2.2 23:31:04 10° SSW 23:36:43 90° WNW 23:42:24 10° NNE
Cosmos 2285 Rocket 4.0 23:31:27 10° S 23:37:44 82° ESE 23:43:59 10° NNE
ARIANE DEB (SYLDA) 2.7 23:34:34 10° W 23:38:50 57° S 23:43:01 10° ESE
Cosmos 1538 Rocket 4.2 23:35:31 10° N 23:40:40 50° ENE 23:45:50 10° SSE
YAOGAN 1 2.8 23:37:05 10° SSE 23:41:08 44° ENE 23:45:10 10° N
Cosmos 1125 Rocket 4.2 23:37:02 10° SSE 23:41:44 33° ESE 23:45:29 15° NE
NOSS 3-1 (A) 2.9 23:37:46 10° S 23:42:11 47° ESE 23:45:26 16° NE
Spot 4 Rocket 4.3 23:37:27 10° SSE 23:42:18 45° ENE 23:47:07 10° N
KORONAS-FOTON 3.4 23:40:20 10° S 23:43:42 61° E 23:47:03 10° NNE
GPS 2-12 Rocket1 3.0 23:40:39 10° WSW 23:44:54 64° NNW 23:47:47 20° ENE
CZ-2D R/B 3.4 23:41:24 10° SSE 23:45:34 64° ENE 23:49:43 10° N
Cosmos 1805 2.8 23:42:48 10° N 23:46:08 89° ESE 23:49:29 10° S
Cosmos 2315 Rocket 4.0 23:47:01 10° S 23:53:15 64° E 23:59:30 10° NNE
Tiangong -1.1 23:51:00 10° SSW 23:53:53 32° SE 23:54:43 27° ESE
USA 59 Rocket 2.8 23:51:42 10° WSW 23:55:28 17° WNW 23:58:34 10° NNW
